sat.trackr.live / text

‹ back to catalog

GALAXY 30 (WAAS/PRN 135)

NORAD 46114 · 2020-056C

PAYLOAD ACTIVE UNKNOWN

§ Identity

Operator
Country
US
Launch date
2020-08-15
Launch site
FRGUI
Launch vehicle
Mass (kg)
RCS (m²)

Purposes: comms, nav

External: N2YO · Heavens-Above · Gunter

§ Orbital elements

Epoch: 2026-09-08T22:03:52.144128Z

Period
1,436.09 min
Inclination
0.0193°
Eccentricity
0.0002032
Mean motion
1.00272145 rev/d
Perigee alt
35,777.9 km
Apogee alt
35,795.1 km
Semi-major
42,164.6 km
B*
0.0000e+0
RAAN
127.5838°
Arg perigee
44.9446°
Mean anomaly
21.4064°
Rev number
2,213

§ Raw data

GALAXY 30 (WAAS/PRN 135)1 46114U 20056C   26251.91935352  .00000016  00000+0  00000+0 0  99972 46114   0.0193 127.5838 0002032  44.9446  21.4064  1.00272145 22130

JSON: /api/v1/satellites/46114 · /tle

For live sub-satellite position, see the globe view (requires WebGL).

§ Visibility from observer

Set your observer location to see the next 7 days of passes ≥ 10°. The values pass through the URL so the page stays shareable.

No JS? Fill the form by hand. The geolocation button needs JavaScript.